Tracking 19827 objects as of 21-Aug-2019
HD Live streaming from Space Station
objects crossing your sky now

COSMOS 2251 DEB

Track COSMOS 2251 DEB now!
10-day predictions


NORAD ID: 34477
Int'l Code: 1993-036TW
Perigee: 685.4 km
Apogee: 815.7 km
Inclination: 74.0 °
Period: 99.7 minutes
Semi major axis: 7121 km
RCS: 0.0204 m2 (small)
Launch date: June 16, 1993
Source: Commonwealth of Independent States (former USSR) (CIS)
Launch site: PLESETSK MISSILE AND SPACE COMPLEX (PKMTR)

Note: This is SATELLITE DEBRIS
aabbcc
Your satellite tracking list
Your tracking list is empty




NASA's NSSDC Master Catalog

Two Line Element Set (TLE):
1 34477U 93036TW  19232.94828638 +.00000175 +00000-0 +55845-4 0  9995
2 34477 073.9812 080.1060 0091509 085.0582 029.6073 14.44571287552523
Source of the keplerian elements: AFSPC